�������l�o���
Date,Time,MP-1(��Sv/h),MP-2(��Sv/h),MP-3(��Sv/h),MP-4(��Sv/h),MP-5(��Sv/h),MP-6(��Sv/h),MP-7(��Sv/h),MP-8(��Sv/h),����,����(m/s),���J
2017/12/31,00:00,0.893,1.492,0.934,1.773,1.192,0.491,0.877,0.844,�k��,3.6,��
2017/12/31,00:10,0.894,1.493,0.933,1.772,1.192,0.490,0.878,0.842,���k��,3.2,��
2017/12/31,00:20,0.896,1.494,0.935,1.772,1.192,0.491,0.878,0.844,�k��,3.2,��
2017/12/31,00:30,0.893,1.490,0.935,1.771,1.193,0.491,0.879,0.842,���k��,3.5,��
2017/12/31,00:40,0.892,1.492,0.934,1.771,1.192,0.490,0.878,0.843,���k��,3.3,��
2017/12/31,00:50,0.891,1.490,0.935,1.770,1.191,0.492,0.880,0.843,���k��,3.0,��
2017/12/31,01:00,0.894,1.490,0.934,1.772,1.189,0.491,0.878,0.844,���k��,3.4,��
2017/12/31,01:10,0.894,1.491,0.937,1.774,1.194,0.490,0.877,0.843,���k��,3.6,��
2017/12/31,01:20,0.893,1.494,0.935,1.773,1.191,0.492,0.879,0.844,���k��,3.5,��
2017/12/31,01:30,0.895,1.493,0.935,1.772,1.192,0.490,0.879,0.843,���k��,3.5,��
2017/12/31,01:40,0.892,1.490,0.935,1.771,1.193,0.492,0.877,0.843,���k��,3.6,��
2017/12/31,01:50,0.893,1.492,0.935,1.771,1.193,0.492,0.878,0.843,���k��,3.5,��
2017/12/31,02:00,0.892,1.492,0.936,1.770,1.192,0.489,0.878,0.844,���k��,4.0,��
2017/12/31,02:10,0.890,1.491,0.935,1.770,1.191,0.491,0.878,0.844,�k��,4.6,��
2017/12/31,02:20,0.892,1.493,0.934,1.769,1.190,0.490,0.877,0.843,�k��,4.8,��
2017/12/31,02:30,0.893,1.492,0.935,1.773,1.190,0.491,0.879,0.842,�k��,4.7,��
2017/12/31,02:40,0.892,1.487,0.935,1.771,1.192,0.489,0.877,0.846,�k��,4.7,��
2017/12/31,02:50,0.892,1.491,0.935,1.770,1.190,0.491,0.878,0.844,�k��,4.8,��
2017/12/31,03:00,0.890,1.495,0.933,1.769,1.189,0.490,0.877,0.842,�k�k��,5.0,��
2017/12/31,03:10,0.892,1.491,0.936,1.769,1.191,0.490,0.879,0.843,�k��,4.4,��
2017/12/31,03:20,0.893,1.495,0.934,1.769,1.191,0.491,0.878,0.845,�k��,4.7,��
2017/12/31,03:30,0.891,1.493,0.935,1.772,1.190,0.491,0.880,0.844,�k�k��,3.8,��
2017/12/31,03:40,0.894,1.492,0.934,1.769,1.188,0.491,0.879,0.844,�k��,4.0,��
2017/12/31,03:50,0.892,1.494,0.936,1.770,1.191,0.491,0.876,0.843,�k�k��,3.9,��
2017/12/31,04:00,0.894,1.492,0.934,1.772,1.190,0.490,0.879,0.845,�k�k��,3.3,��
2017/12/31,04:10,0.892,1.489,0.936,1.772,1.194,0.491,0.879,0.842,�k�k��,3.3,��
2017/12/31,04:20,0.893,1.493,0.936,1.770,1.191,0.491,0.878,0.844,�k�k��,3.5,��
2017/12/31,04:30,0.894,1.491,0.934,1.769,1.190,0.491,0.878,0.844,�k�k��,3.2,��
2017/12/31,04:40,0.891,1.490,0.932,1.772,1.191,0.493,0.879,0.844,�k�k��,2.6,��
2017/12/31,04:50,0.893,1.489,0.933,1.771,1.192,0.492,0.879,0.844,�k�k��,2.6,��
2017/12/31,05:00,0.891,1.492,0.936,1.771,1.191,0.492,0.880,0.844,�k��,2.3,��
2017/12/31,05:10,0.893,1.492,0.933,1.772,1.192,0.491,0.878,0.844,�k�k��,2.6,��
2017/12/31,05:20,0.890,1.492,0.936,1.768,1.194,0.491,0.878,0.844,�k��,2.3,��
2017/12/31,05:30,0.894,1.490,0.934,1.770,1.193,0.490,0.877,0.843,�k��,2.0,��
2017/12/31,05:40,0.892,1.489,0.934,1.771,1.192,0.491,0.876,0.843,���k��,1.7,��
2017/12/31,05:50,0.893,1.491,0.935,1.770,1.192,0.490,0.878,0.843,�k��,1.7,��
2017/12/31,06:00,0.892,1.490,0.933,1.772,1.191,0.492,0.879,0.844,���k��,1.2,��
2017/12/31,06:10,0.891,1.491,0.934,1.772,1.192,0.490,0.878,0.844,���쐼,0.9,��
2017/12/31,06:20,0.894,1.491,0.932,1.770,1.193,0.491,0.878,0.843,���쐼,0.8,��
2017/12/31,06:30,0.895,1.490,0.935,1.768,1.190,0.492,0.878,0.844,���쐼,0.6,��
2017/12/31,06:40,0.893,1.493,0.936,1.773,1.191,0.491,0.877,0.844,��,0.9,��
2017/12/31,06:50,0.893,1.491,0.936,1.770,1.191,0.490,0.878,0.844,���쐼,0.8,��
2017/12/31,07:00,0.892,1.493,0.936,1.770,1.194,0.492,0.877,0.844,��,0.9,��
2017/12/31,07:10,0.895,1.491,0.936,1.770,1.192,0.492,0.879,0.843,�k��,1.5,��
2017/12/31,07:20,0.892,1.492,0.936,1.770,1.191,0.490,0.877,0.844,�k��,1.7,��
2017/12/31,07:30,0.892,1.494,0.934,1.770,1.190,0.492,0.879,0.844,��,1.7,��
2017/12/31,07:40,0.894,1.492,0.934,1.773,1.191,0.491,0.879,0.845,��,1.9,��
2017/12/31,07:50,0.894,1.492,0.936,1.770,1.195,0.491,0.879,0.843,��,2.2,��
2017/12/31,08:00,0.896,1.493,0.933,1.770,1.191,0.491,0.879,0.846,��,2.2,��
2017/12/31,08:10,0.894,1.492,0.937,1.769,1.193,0.490,0.877,0.844,���쐼,1.7,��
2017/12/31,08:20,0.896,1.492,0.936,1.773,1.192,0.490,0.879,0.844,��,1.7,��
2017/12/31,08:30,0.893,1.490,0.937,1.772,1.192,0.491,0.878,0.844,���쐼,1.5,��
2017/12/31,08:40,0.894,1.493,0.937,1.772,1.191,0.492,0.877,0.843,���쐼,1.5,��
2017/12/31,08:50,0.895,1.492,0.936,1.772,1.192,0.492,0.878,0.846,��,1.2,��
2017/12/31,09:00,0.894,1.492,0.936,1.778,1.195,0.492,0.881,0.846,���쐼,1.1,��
2017/12/31,09:10,0.895,1.494,0.935,1.774,1.194,0.490,0.881,0.846,���쐼,0.9,��
2017/12/31,09:20,0.895,1.493,0.937,1.773,1.192,0.492,0.881,0.845,���쐼,1.2,��
2017/12/31,09:30,0.895,1.493,0.936,1.773,1.194,0.491,0.879,0.844,�쐼,1.1,��
2017/12/31,09:40,0.895,1.494,0.939,1.775,1.193,0.492,0.882,0.845,�쐼,1.2,��
2017/12/31,09:50,0.895,1.493,0.937,1.777,1.195,0.490,0.880,0.844,��쐼,1.5,��
2017/12/31,10:00,0.897,1.494,0.939,1.777,1.192,0.491,0.880,0.847,�쐼,1.2,��
2017/12/31,10:10,0.895,1.494,0.941,1.776,1.194,0.493,0.881,0.845,��쐼,1.2,��
2017/12/31,10:20,0.896,1.494,0.937,1.775,1.193,0.493,0.880,0.845,��쐼,1.2,��
2017/12/31,10:30,0.898,1.493,0.941,1.775,1.194,0.493,0.882,0.846,��,1.5,��
2017/12/31,10:40,0.898,1.498,0.938,1.775,1.195,0.494,0.882,0.845,�쓌,1.1,��
2017/12/31,10:50,0.897,1.495,0.939,1.776,1.194,0.493,0.883,0.844,�쓌,1.7,��
2017/12/31,11:00,0.896,1.496,0.939,1.779,1.195,0.491,0.882,0.847,��,1.4,��
2017/12/31,11:10,0.896,1.496,0.937,1.776,1.197,0.491,0.880,0.847,��,1.9,��
2017/12/31,11:20,0.899,1.497,0.938,1.775,1.196,0.492,0.879,0.846,��쓌,2.2,��
2017/12/31,11:30,0.898,1.497,0.940,1.777,1.199,0.494,0.882,0.847,���쓌,1.2,��
2017/12/31,11:40,0.900,1.497,0.938,1.775,1.197,0.493,0.878,0.847,���쓌,1.5,��
2017/12/31,11:50,0.898,1.493,0.942,1.776,1.199,0.494,0.881,0.848,���쓌,1.5,��
2017/12/31,12:00,0.896,1.499,0.942,1.777,1.197,0.494,0.881,0.845,�쓌,1.5,��
2017/12/31,12:10,0.898,1.498,0.940,1.775,1.193,0.494,0.880,0.848,�쓌,1.8,��
2017/12/31,12:20,0.899,1.497,0.942,1.778,1.198,0.493,0.881,0.845,���쓌,1.2,��
2017/12/31,12:30,0.899,1.498,0.941,1.778,1.199,0.493,0.880,0.848,-,CALM,��
2017/12/31,12:40,0.900,1.500,0.943,1.778,1.201,0.494,0.879,0.847,���쓌,1.7,��
2017/12/31,12:50,0.901,1.496,0.939,1.777,1.198,0.495,0.882,0.846,�k��,1.1,��
2017/12/31,13:00,0.900,1.499,0.941,1.779,1.197,0.494,0.881,0.847,���k��,0.8,��
2017/12/31,13:10,0.898,1.496,0.941,1.778,1.198,0.494,0.883,0.845,���쓌,1.2,��
2017/12/31,13:20,0.899,1.497,0.942,1.778,1.198,0.495,0.881,0.847,-,CALM,��
2017/12/31,13:30,0.901,1.499,0.939,1.776,1.198,0.494,0.881,0.845,���k��,0.8,��
2017/12/31,13:40,0.900,1.499,0.939,1.775,1.197,0.493,0.880,0.847,���k��,0.6,��
2017/12/31,13:50,0.899,1.498,0.940,1.777,1.199,0.493,0.881,0.845,�쓌,1.8,��
2017/12/31,14:00,0.899,1.496,0.941,1.777,1.199,0.493,0.881,0.846,�쓌,1.2,��
2017/12/31,14:10,0.901,1.498,0.940,1.779,1.199,0.495,0.881,0.846,�쓌,1.1,��
2017/12/31,14:20,0.898,1.495,0.940,1.779,1.198,0.495,0.881,0.846,�쓌,1.7,��
2017/12/31,14:30,0.899,1.500,0.941,1.775,1.197,0.494,0.882,0.846,��쓌,2.2,�L
2017/12/31,14:40,0.899,1.496,0.942,1.780,1.199,0.493,0.882,0.846,��,3.1,�L
2017/12/31,14:50,0.898,1.496,0.941,1.779,1.197,0.494,0.883,0.846,��,4.6,�L
2017/12/31,15:00,0.899,1.496,0.941,1.777,1.196,0.495,0.882,0.845,��쐼,4.6,�L
2017/12/31,15:10,0.899,1.495,0.940,1.779,1.196,0.494,0.880,0.845,��쐼,3.6,�L
2017/12/31,15:20,0.895,1.494,0.939,1.776,1.196,0.494,0.881,0.846,��쐼,3.1,�L
2017/12/31,15:30,0.899,1.494,0.940,1.776,1.195,0.494,0.882,0.845,��,2.8,�L
2017/12/31,15:40,0.900,1.493,0.940,1.776,1.195,0.494,0.881,0.845,��,2.6,�L
2017/12/31,15:50,0.899,1.493,0.939,1.774,1.194,0.494,0.882,0.846,��,1.7,�L
2017/12/31,16:00,0.896,1.493,0.941,1.775,1.194,0.494,0.882,0.845,��쐼,1.7,�L
2017/12/31,16:10,0.896,1.489,0.940,1.776,1.192,0.494,0.882,0.846,��,2.0,�L
2017/12/31,16:20,0.898,1.489,0.939,1.775,1.192,0.494,0.883,0.844,��,1.5,�L
2017/12/31,16:30,0.897,1.492,0.940,1.773,1.193,0.494,0.882,0.846,��,1.2,�L
2017/12/31,16:40,0.894,1.494,0.938,1.775,1.193,0.495,0.882,0.845,�쐼,1.2,�L
2017/12/31,16:50,0.896,1.492,0.939,1.774,1.193,0.494,0.882,0.845,�쐼,2.0,�L
2017/12/31,17:00,0.895,1.491,0.938,1.772,1.193,0.492,0.882,0.845,�쐼,2.3,�L
2017/12/31,17:10,0.895,1.492,0.940,1.773,1.195,0.492,0.883,0.845,���쐼,2.0,�L
2017/12/31,17:20,0.894,1.490,0.937,1.771,1.190,0.495,0.882,0.845,���쐼,2.5,�L
2017/12/31,17:30,0.895,1.489,0.939,1.774,1.192,0.493,0.881,0.844,���쐼,2.6,�L
2017/12/31,17:40,0.893,1.490,0.938,1.774,1.189,0.495,0.880,0.844,���쐼,2.2,�L
2017/12/31,17:50,0.896,1.486,0.937,1.771,1.190,0.495,0.881,0.844,�쐼,2.6,�L
2017/12/31,18:00,0.896,1.485,0.936,1.771,1.189,0.494,0.882,0.844,�쐼,2.0,�L
2017/12/31,18:10,0.894,1.487,0.934,1.766,1.191,0.494,0.881,0.845,���쐼,2.3,�L
2017/12/31,18:20,0.895,1.489,0.937,1.771,1.190,0.494,0.878,0.845,��,2.0,�L
2017/12/31,18:30,0.892,1.487,0.935,1.772,1.189,0.494,0.880,0.845,��,1.4,��
2017/12/31,18:40,0.892,1.486,0.937,1.767,1.188,0.492,0.880,0.844,���k��,1.2,��
2017/12/31,18:50,0.895,1.489,0.936,1.769,1.190,0.491,0.880,0.843,�k��,2.0,��
2017/12/31,19:00,0.893,1.486,0.935,1.769,1.188,0.491,0.879,0.845,�k��,1.5,��
2017/12/31,19:10,0.891,1.487,0.937,1.770,1.188,0.494,0.880,0.843,�k��,2.0,��
2017/12/31,19:20,0.894,1.486,0.936,1.770,1.190,0.493,0.881,0.844,�k��,2.5,��
2017/12/31,19:30,0.893,1.486,0.936,1.769,1.187,0.493,0.881,0.843,�k�k��,2.0,��
2017/12/31,19:40,0.894,1.487,0.936,1.769,1.188,0.492,0.880,0.844,�k�k��,2.2,��
2017/12/31,19:50,0.892,1.485,0.936,1.770,1.187,0.492,0.880,0.845,�k�k��,1.7,��
2017/12/31,20:00,0.892,1.486,0.935,1.770,1.190,0.493,0.879,0.843,�k�k��,1.7,��
2017/12/31,20:10,0.892,1.486,0.936,1.768,1.190,0.493,0.879,0.846,�k��,1.7,��
2017/12/31,20:20,0.892,1.486,0.937,1.771,1.188,0.492,0.881,0.844,�k��,2.2,��
2017/12/31,20:30,0.892,1.484,0.936,1.770,1.188,0.492,0.879,0.844,�k��,2.2,��
2017/12/31,20:40,0.893,1.484,0.934,1.769,1.189,0.493,0.881,0.845,�k��,2.5,��
2017/12/31,20:50,0.893,1.485,0.935,1.769,1.189,0.493,0.877,0.844,�k��,2.6,��
2017/12/31,21:00,0.893,1.484,0.937,1.769,1.189,0.493,0.879,0.843,�k��,2.8,��
2017/12/31,21:10,0.896,1.485,0.936,1.770,1.189,0.493,0.881,0.845,�k��,2.6,��
2017/12/31,21:20,0.893,1.485,0.934,1.768,1.187,0.493,0.880,0.844,�k��,2.3,��
2017/12/31,21:30,0.891,1.486,0.936,1.769,1.187,0.494,0.883,0.844,���k��,3.0,��
2017/12/31,21:40,0.893,1.487,0.935,1.770,1.186,0.494,0.879,0.844,���k��,3.6,��
2017/12/31,21:50,0.894,1.486,0.935,1.771,1.189,0.492,0.880,0.844,���k��,4.0,��
2017/12/31,22:00,0.894,1.485,0.935,1.770,1.188,0.492,0.882,0.842,���k��,3.7,��
2017/12/31,22:10,0.892,1.485,0.936,1.769,1.189,0.492,0.880,0.846,���k��,4.1,��
2017/12/31,22:20,0.892,1.487,0.936,1.770,1.188,0.495,0.881,0.845,���k��,3.4,��
2017/12/31,22:30,0.893,1.486,0.936,1.768,1.190,0.494,0.881,0.844,���k��,3.7,��
2017/12/31,22:40,0.894,1.487,0.937,1.768,1.189,0.493,0.879,0.845,���k��,4.0,��
2017/12/31,22:50,0.895,1.485,0.936,1.771,1.189,0.495,0.879,0.845,���k��,3.8,��
2017/12/31,23:00,0.895,1.486,0.936,1.773,1.189,0.492,0.883,0.844,���k��,3.2,��
2017/12/31,23:10,0.896,1.483,0.938,1.770,1.188,0.492,0.881,0.841,���k��,2.6,��
2017/12/31,23:20,0.894,1.485,0.935,1.771,1.189,0.492,0.879,0.844,���k��,3.0,��
2017/12/31,23:30,0.895,1.486,0.939,1.771,1.188,0.494,0.879,0.845,��,2.9,��
2017/12/31,23:40,0.895,1.486,0.937,1.772,1.189,0.494,0.881,0.846,��,3.0,��
2017/12/31,23:50,0.893,1.486,0.937,1.770,1.190,0.494,0.883,0.844,���k��,2.3,��
